Le nostre stazioni meteo in Italia

Pubblicità
Il mio iltempo24.it
Reggio Calabria, Italia (16422): Temperatura & dewpoint: 13.04.2019 17:00:00 - 19.04.2019 17:00:00 (CEST)Reggio Calabria, Italia (16422): velocità del vento: 13.04.2019 17:00:00 - 19.04.2019 17:00:00 (CEST)Reggio Calabria, Italia (16422): direzione del vento: 13.04.2019 17:00:00 - 19.04.2019 17:00:00 (CEST)Reggio Calabria, Italia (16422): visibility: 13.04.2019 17:00:00 - 19.04.2019 17:00:00 (CEST)
Data & Tempo tt [°C] td [°C] ff [km/h] ff [kn] dd vv [km]
19.04.2019 17:00:00 17,0 12,0 18 10 SO 10
19.04.2019 16:00:00 18,0 12,0 18 10 SO 10
19.04.2019 15:00:00 18,0 11,0 21 11 SO 10
19.04.2019 14:00:00 18,0 12,0 21 11 SO 10
19.04.2019 13:00:00 18,0 11,0 18 10 SO 10
19.04.2019 12:00:00 18,0 11,0 21 11 SO 10
19.04.2019 11:00:00 18,0 11,0 13 7 SSO 10
19.04.2019 10:00:00 18,0 11,0 8 4 S 10
19.04.2019 09:00:00 17,0 10,0 5 3 S 10
19.04.2019 08:00:00 15,0 9,0 5 3 ENE 10
19.04.2019 07:00:00 11,0 8,0 9 5 E 10
19.04.2019 06:00:00 10,0 7,0 9 5 ENE 10
19.04.2019 05:00:00 - - - - - -
19.04.2019 04:00:00 - - - - - -
19.04.2019 03:00:00 - - - - - -
19.04.2019 02:00:00 - - - - - -
19.04.2019 01:00:00 - - - - - -
19.04.2019 00:00:00 11,0 7,0 8 4 NE 10
18.04.2019 23:00:00 12,0 9,0 8 4 ENE 10
18.04.2019 22:00:00 13,0 11,0 5 3 ENE 10
18.04.2019 21:00:00 14,0 11,0 4 2 SSE 10
18.04.2019 20:00:00 15,0 13,0 11 6 SSO 10
18.04.2019 19:00:00 16,0 13,0 13 7 SSO 10
18.04.2019 18:00:00 17,0 13,0 22 12 SSO 10
18.04.2019 17:00:00 17,0 13,0 22 12 SO 10
18.04.2019 16:00:00 18,0 12,0 24 13 SSO 10
18.04.2019 15:00:00 18,0 12,0 24 13 SO 10
18.04.2019 14:00:00 18,0 11,0 22 12 SO 10
18.04.2019 13:00:00 19,0 10,0 18 10 SSO 10
18.04.2019 12:00:00 19,0 9,0 11 6 SSO 10
18.04.2019 11:00:00 18,0 11,0 9 5 OSO 10
18.04.2019 10:00:00 17,0 12,0 11 6 NO 10
18.04.2019 09:00:00 17,0 12,0 15 8 NNO 10
18.04.2019 08:00:00 15,0 10,0 8 4 NNE 10
18.04.2019 07:00:00 11,0 6,0 9 5 NE 10
18.04.2019 06:00:00 12,0 8,0 11 6 NNE 10
18.04.2019 05:00:00 - - - - - -
18.04.2019 04:00:00 - - - - - -
18.04.2019 03:00:00 - - - - - -
18.04.2019 02:00:00 - - - - - -
18.04.2019 01:00:00 - - - - - -
18.04.2019 00:00:00 12,0 9,0 9 5 N 10
17.04.2019 23:00:00 12,0 8,0 9 5 NNE 10
17.04.2019 22:00:00 14,0 11,0 13 7 N 10
17.04.2019 21:00:00 15,0 11,0 16 9 NNO 10
17.04.2019 20:00:00 15,0 11,0 22 12 NNO 10
17.04.2019 19:00:00 17,0 8,0 22 12 N 10
17.04.2019 18:00:00 18,0 8,0 22 12 N 10
17.04.2019 17:00:00 19,0 7,0 24 13 N 10
17.04.2019 16:00:00 18,0 7,0 24 13 N 10
17.04.2019 15:00:00 19,0 9,0 24 13 N 10
17.04.2019 14:00:00 19,0 10,0 24 13 N 10
17.04.2019 13:00:00 19,0 10,0 26 14 N 10
17.04.2019 12:00:00 19,0 11,0 24 13 N 10
17.04.2019 11:00:00 18,0 11,0 21 11 N 10
17.04.2019 10:00:00 18,0 12,0 18 10 N 10
17.04.2019 09:00:00 15,0 12,0 18 10 N 10
17.04.2019 08:00:00 15,0 12,0 11 6 N 10
17.04.2019 07:00:00 14,0 12,0 13 7 N 10
17.04.2019 06:00:00 15,0 11,0 18 10 N 10
17.04.2019 05:00:00 - - - - - -
17.04.2019 04:00:00 - - - - - -
17.04.2019 03:00:00 - - - - - -
17.04.2019 02:00:00 - - - - - -
17.04.2019 01:00:00 - - - - - -
17.04.2019 00:00:00 14,0 10,0 8 4 NE 10
16.04.2019 23:00:00 14,0 10,0 8 4 NE 10
16.04.2019 22:00:00 15,0 10,0 2 1 NNE 10
16.04.2019 21:00:00 15,0 10,0 0 0 N 10
16.04.2019 20:00:00 15,0 11,0 5 3 SSE 10
16.04.2019 19:00:00 15,0 11,0 8 4 SSO 10
16.04.2019 18:00:00 16,0 11,0 5 3 S 10
16.04.2019 17:00:00 17,0 11,0 8 4 SSO 10
16.04.2019 16:00:00 16,0 11,0 11 6 SSO 10
16.04.2019 15:00:00 17,0 11,0 9 5 S 10
16.04.2019 14:00:00 17,0 12,0 13 7 SSO 10
16.04.2019 13:00:00 17,0 12,0 9 5 SSO 10
16.04.2019 12:00:00 17,0 12,0 15 8 SSO 10
16.04.2019 11:00:00 18,0 10,0 16 9 NNO 10
16.04.2019 10:00:00 18,0 10,0 16 9 NNO 10
16.04.2019 09:00:00 17,0 10,0 13 7 N 10
16.04.2019 08:00:00 14,0 10,0 9 5 NE 10
16.04.2019 07:00:00 12,0 10,0 9 5 NE 10
16.04.2019 06:00:00 12,0 10,0 9 5 ENE 10
16.04.2019 05:00:00 - - - - - -
16.04.2019 04:00:00 - - - - - -
16.04.2019 03:00:00 - - - - - -
16.04.2019 02:00:00 - - - - - -
16.04.2019 01:00:00 - - - - - -
16.04.2019 00:00:00 14,0 11,0 8 4 NE 10
15.04.2019 23:00:00 15,0 10,0 13 7 NNO 10
15.04.2019 22:00:00 14,0 10,0 9 5 NNE 10
15.04.2019 21:00:00 13,0 9,0 13 7 NNE 10
15.04.2019 20:00:00 14,0 9,0 15 8 NNE 10
15.04.2019 19:00:00 14,0 9,0 18 10 N 10
15.04.2019 18:00:00 15,0 9,0 22 12 N 10
15.04.2019 17:00:00 15,0 10,0 21 11 N 10
15.04.2019 16:00:00 16,0 8,0 31 17 N 10
15.04.2019 15:00:00 16,0 7,0 29 16 N 10
15.04.2019 14:00:00 16,0 8,0 26 14 NNO 10
15.04.2019 13:00:00 16,0 8,0 26 14 N 10
15.04.2019 12:00:00 16,0 9,0 24 13 N 10
15.04.2019 11:00:00 14,0 8,0 16 9 N 10
15.04.2019 10:00:00 12,0 8,0 13 7 NNE 10
15.04.2019 09:00:00 10,0 8,0 18 10 E 10
15.04.2019 08:00:00 10,0 8,0 11 6 ENE 8
15.04.2019 07:00:00 11,0 9,0 18 10 NNE 6
15.04.2019 06:00:00 11,0 8,0 5 3 NE 10
15.04.2019 05:00:00 - - - - - -
15.04.2019 04:00:00 - - - - - -
15.04.2019 03:00:00 - - - - - -
15.04.2019 02:00:00 - - - - - -
15.04.2019 01:00:00 - - - - - -
15.04.2019 00:00:00 13,0 9,0 2 1 - 10
14.04.2019 23:00:00 13,0 9,0 11 6 NE 10
14.04.2019 22:00:00 14,0 10,0 9 5 NNE 10
14.04.2019 21:00:00 14,0 10,0 4 2 - 10
14.04.2019 20:00:00 14,0 9,0 11 6 NNE 10
14.04.2019 19:00:00 16,0 10,0 13 7 N 10
14.04.2019 18:00:00 16,0 10,0 13 7 N 10
14.04.2019 17:00:00 16,0 10,0 16 9 N 10
14.04.2019 16:00:00 17,0 10,0 15 8 N 10
14.04.2019 15:00:00 15,0 12,0 13 7 NE 10
14.04.2019 14:00:00 14,0 11,0 21 11 N 10
14.04.2019 13:00:00 17,0 10,0 21 11 NNE 10
14.04.2019 12:00:00 15,0 9,0 18 10 NNE 10
14.04.2019 11:00:00 14,0 10,0 15 8 NNE 10
14.04.2019 10:00:00 14,0 10,0 15 8 NNE 10
14.04.2019 09:00:00 14,0 10,0 11 6 NE 10
14.04.2019 08:00:00 14,0 10,0 11 6 N 10
14.04.2019 07:00:00 13,0 10,0 13 7 NE 10
14.04.2019 06:00:00 12,0 9,0 13 7 NNE 10
14.04.2019 05:00:00 - - - - - -
14.04.2019 04:00:00 - - - - - -
14.04.2019 03:00:00 - - - - - -
14.04.2019 02:00:00 - - - - - -
14.04.2019 01:00:00 - - - - - -
14.04.2019 00:00:00 13,0 11,0 15 8 NE 10
13.04.2019 23:00:00 13,0 11,0 15 8 NNE 10
13.04.2019 22:00:00 14,0 10,0 11 6 NNE 10
13.04.2019 21:00:00 13,0 11,0 0 0 N 10
13.04.2019 20:00:00 13,0 11,0 8 4 SE 10
13.04.2019 19:00:00 14,0 11,0 16 9 SO 10
13.04.2019 18:00:00 16,0 10,0 21 11 N 10
13.04.2019 17:00:00 18,0 9,0 21 11 N 10

tt = Temperatura
td = dewpoint
ff = velocità del vento
dd = direzione del vento
vv = visibility

Stazioni seguenti

WeatherPro
AMSI
MeteoEarth